Tracking 29892 objects as of 21-Nov-2024
HD Live streaming from Space Station
objects crossing your sky now

STARLINK-31083

Track STARLINK-31083 now!
10-day predictions
STARLINK-31083 is classified as:


NORAD ID: 58670
Int'l Code: 2023-211D
Perigee: 494.5 km
Apogee: 495.9 km
Inclination: 43.0 °
Period: 94.4 minutes
Semi major axis: 6866 km
RCS: Unknown
Launch date: December 29, 2023
Source: United States (US)
Launch site: AIR FORCE EASTERN TEST RANGE (AFETR)
Your satellite tracking list
Your tracking list is empty




NASA's NSSDC Master Catalog

Two Line Element Set (TLE):
1 58670U 23211D   24325.82783997 -.00001414  00000-0 -44234-4 0  9997
2 58670  43.0016 238.8245 0001010 256.6343 103.4396 15.25912113 50028
Source of the keplerian elements: AFSPC